Terminal Aerodrome Forecast
Issued by NWS Louisville, KY

Home | Current Version | Previous Version | Text Only | Print | Product List | Glossary On
Versions: 1 2 3 4 5 6 7 8 9 10 11 12 13 14 15 16 17 18 19 20 21 22
000
FTUS43 KLMK 152300
TAFSDF
TAF
KSDF 152320Z 1600/1706 22005KT P6SM VCSH BKN060
     FM160700 34006KT P6SM VCSH OVC017
     FM161500 36007KT P6SM OVC025
     FM162100 01005KT P6SM BKN035=

USA.gov is the U.S. government's official web portal to all federal, state and local government web resources and services.